sat.trackr.live / text

‹ back to catalog

STARLINK-4480

NORAD 53416 · 2022-097AE

PAYLOAD ACTIVE UNKNOWN

§ Identity

Operator
Country
US
Launch date
2022-08-10
Launch site
AFETR
Launch vehicle
Mass (kg)
RCS (m²)

Purposes: comms

External: N2YO · Heavens-Above · Gunter

§ Orbital elements

Epoch: 2026-09-20T04:00:03.000096Z

Period
94.53 min
Inclination
53.1612°
Eccentricity
0.0001871
Mean motion
15.23354587 rev/d
Perigee alt
494.4 km
Apogee alt
497.0 km
Semi-major
6,873.9 km
B*
2.4144e-3
RAAN
319.0566°
Arg perigee
61.1547°
Mean anomaly
308.8780°
Rev number
584

§ Raw data

STARLINK-44801 53416U 22097AE  26263.16670139  .00058239  00000+0  24144-2 0  99942 53416  53.1612 319.0566 0001871  61.1547 308.8780 15.23354587  5844

JSON: /api/v1/satellites/53416 · /tle

For live sub-satellite position, see the globe view (requires WebGL).

§ Visibility from observer

Set your observer location to see the next 7 days of passes ≥ 10°. The values pass through the URL so the page stays shareable.

No JS? Fill the form by hand. The geolocation button needs JavaScript.